STARLINK-3078, 49134

Orbit data source: Space-Track

STARLINK-3078, 49134 is a payload satellite owned by SpaceX/Seattle (US) in LEO that was launched on Tue, 14 Sep 2021 UTC via an FALCON 9 launch vehicle from the Air Force Western Test Range (AFWTR). Payload-class satellites include a variety of spacecraft equipped with specific instruments for various scientific and technological missions. These include communications satellites like Starlink; space stations such as the ISS; scientific satellites like the Hubble; Earth observation satellites from companies like Planet Labs, Umbra, and HawkEye 360; GPS; miniature CubeSats for education and research; and military/defense satellites.

Loading next visibility...
Identifier
49134, 2021-082E
Orbit
LEO
Country
Flag of USUS
Related business
Manufacturer
SpaceX/Seattle
Mission
Operational Commercial Communications
Bus & Motor
STARLINK, Unknown motor
Mass
297 kg wet, ~275 kg dry
Launch date (UTC)
2021-09-14 (4 years ago)
Launch vehicle
FALCON 9
Launch site
Air Force Western Test Range (AFWTR)
Object type
Payload
Rocket body
Debris
Shape & HBR
Box + 1 Pan, 10.1 m
Radar Cross Section
13.562 m², Large (>1 m²)

Expand to show TLE details & history
Last TLE update: 13 hours ago

TLE from 13 hours ago
0 STARLINK-3078
1 49134U 21082E   25286.51239545  .00000259  00000-0  29512-4 0  9990
2 49134  69.9981 305.5448 0002925 273.7874  86.2950 14.98334426225137
Epoch: 2025-10-13T12:17Z
TLE epoch observation values (Epoch: 2025-10-13T12:17:50.966Z)
Latitude
-0.0001°
Longitude
98.76829°
Altitude
574.335 km
Speed
7.574 km/s
True Right ascension
20h 22m 10s
True Declination
0° 00' 00"
Sunlit
Object was in daylight at epoch
Visualization orbit readout
Latitude
Unknown
Longitude
Unknown
Altitude
Unknown
Speed
Unknown
Apparent Right ascension
Unknown
Apparent Declination
Unknown
Sunlit
N/A
Visualization observer readout
Local Sidereal Time
19:56:40
Azimuth
Unknown
Elevation
Unknown
Doppler factor
Unknown
Orbital elements
Apogee altitude
572.023 km
Perigee altitude
567.958 km
Semi-major axis
6,948.128 km
Eccentricity
0.00029
Inclination
69.9981°
RAAN
305.5448°
Arg. of periapsis
273.7874°
True anomaly
86.32845°
Mean anomaly
86.295°
Eccentric anomaly
86.31172°
Mean motion
3.7475 °/min
Orbital period
96.06 mins
BSTAR
0.000029512
Loading maneuver chart data...
Computing Atmospheric mass density...
Loading historical data...
Loading historical data...
Loading historical data...
Loading historical data...
Loading historical data...
Loading historical data...
Loading historical data...

Documentation

Showing up to 5 results
|